time_stamp(utc),avg(mph),gust(mph),direction(deg),12m_air_temp(f),sonic_u(cm/s),sonic_v(cm/s),sonic_w(cm/s),pressure,2m_air_temp(f),pyranometer(W/m^2)
"2017-06-14 00:00:21+00",14.9,17.9,,78.1,-481,-441,5,1010.82,78.5,0
"2017-06-14 00:05:21+00",15.5,18.5,,78,-489,-492,-6,1010.79,78.2,0
"2017-06-14 00:10:21+00",13.1,15.1,,77.8,-397,-441,5,1010.87,78,0
"2017-06-14 00:15:21+00",14.5,16.5,,77.7,-456,-474,8,1010.92,77.8,0
"2017-06-14 00:20:21+00",13.8,15.8,,77.5,-420,-464,5,1010.92,77.6,0
"2017-06-14 00:25:21+00",13.8,15.8,,77.3,-408,-478,5,1010.83,77.3,0
"2017-06-14 00:30:21+00",15.5,17.5,,77,-486,-516,3,1010.93,77,0
"2017-06-14 00:35:21+00",14.9,16.9,,76.6,-441,-525,1,1010.95,76.6,0
"2017-06-14 00:40:21+00",15.9,16.9,,76.3,-448,-573,3,1011.02,76.3,0
"2017-06-14 00:45:21+00",13.1,14.1,,76.1,-333,-484,8,1011.05,76,0
"2017-06-14 00:50:21+00",13.1,14.1,,75.9,-334,-489,0,1010.97,75.7,0
"2017-06-14 00:55:21+00",12.9,14.9,,75.8,-321,-482,-64,1011.01,75.6,0
"2017-06-14 01:00:21+00",12.9,14.9,,75.6,-352,-486,-55,1011.08,75.3,0
"2017-06-14 01:05:21+00",11.1,13.1,,75.6,-347,-403,-72,1011.03,75.2,0
"2017-06-14 01:10:21+00",11.3,13.3,,75.3,-324,-423,-45,1011.08,75,0
"2017-06-14 01:15:21+00",11.5,12.5,,75.4,-333,-431,-59,1010.93,74.9,0
"2017-06-14 01:20:21+00",10.6,12.6,,75.1,-313,-407,-55,1011.03,74.7,0
"2017-06-14 01:25:21+00",11.9,13.9,,75,-333,-443,-54,1011.05,74.5,0
"2017-06-14 01:30:21+00",10.4,12.4,,74.9,-323,-406,-55,1011.11,74.4,0
"2017-06-14 01:35:21+00",8.6,10.6,,74.8,-313,-346,-40,1011.05,74.3,0
"2017-06-14 01:40:21+00",8.5,9.5,,74.8,-358,-332,-61,1011.2,74.2,0
"2017-06-14 01:45:21+00",8.3,10.3,,74.8,-312,-327,-48,1011.23,74.2,0
"2017-06-14 01:50:21+00",8.2,9.2,,74.7,-290,-324,-55,1011.24,74.1,0
"2017-06-14 01:55:21+00",8.1,9.1,,74.5,-269,-328,-62,1011.27,73.9,0
"2017-06-14 02:00:21+00",10.6,12.6,,74.4,-273,-397,-68,1011.2,73.6,0
"2017-06-14 02:05:21+00",11.0,13.0,,74.3,-285,-429,-59,1011.23,73.5,0
"2017-06-14 02:10:21+00",8.7,10.7,,74.2,-261,-349,-73,1011.28,73.4,0
"2017-06-14 02:15:21+00",9.3,11.3,,74.1,-274,-356,-72,1011.22,73.2,0
"2017-06-14 02:20:21+00",8.5,10.5,,74,-262,-326,-68,1011.19,73,0
"2017-06-14 02:25:21+00",7.6,8.6,,74.2,-294,-303,-47,1011.26,72.9,0
"2017-06-14 02:30:21+00",6.6,7.6,,74.3,-288,-208,-69,1011.49,73,0
"2017-06-14 02:35:21+00",6.7,8.7,,74.4,-294,-229,-62,1011.5,73.1,0
"2017-06-14 02:40:21+00",6.9,7.9,,74.2,-288,-184,-56,1011.54,73.2,0
"2017-06-14 02:45:21+00",7.9,9.9,,74.2,-370,-298,-47,1011.47,73.3,0
"2017-06-14 02:50:21+00",8.8,11.8,,74.2,-387,-268,-54,1011.47,73.3,0
"2017-06-14 02:55:21+00",10.4,11.4,,73.9,-366,-243,-60,1011.5,73.3,0
"2017-06-14 03:00:21+00",9.6,11.6,,73.6,-376,-309,-51,1011.46,73.2,0
"2017-06-14 03:05:21+00",8.7,10.7,,73.4,-328,-253,-63,1011.51,73.1,0
"2017-06-14 03:10:21+00",7.5,9.5,,73.2,-296,-252,-40,1011.3,72.9,0
"2017-06-14 03:15:21+00",7.4,9.4,,73.3,-281,-294,-29,1011.21,72.7,0
"2017-06-14 03:20:21+00",6.9,8.9,,73.5,-308,-272,-42,1011.18,72.7,0
"2017-06-14 03:25:21+00",7.4,8.4,,73.5,-313,-313,-42,1011.01,72.6,0
"2017-06-14 03:30:21+00",7.9,9.9,,73.3,-277,-237,-62,1010.96,72.6,0
"2017-06-14 03:35:21+00",7.3,8.3,,73.4,-272,-276,-65,1010.95,72.5,0
"2017-06-14 03:40:21+00",6.6,8.6,,73.3,-245,-258,-66,1011.06,72.5,0
"2017-06-14 03:45:21+00",6.5,7.5,,73.3,-239,-271,-62,1010.99,72.4,0
"2017-06-14 03:50:21+00",6.9,8.9,,73.3,-234,-231,-70,1011.02,72.4,0
"2017-06-14 03:55:21+00",7.0,8.0,,73.5,-237,-218,-76,1010.97,72.4,0
"2017-06-14 04:00:21+00",6.5,7.5,,73.6,-231,-229,-76,1011.02,72.4,0
"2017-06-14 04:05:21+00",6.5,7.5,,73.7,-262,-256,-61,1011.08,72.4,0
"2017-06-14 04:10:21+00",7.6,8.6,,73.7,-252,-214,-78,1011.1,72.4,0
"2017-06-14 04:15:21+00",7.8,8.8,,73.9,-236,-182,-81,1011.11,72.4,0
"2017-06-14 04:20:21+00",6.9,7.9,,74,-225,-175,-78,1011.08,72.4,0
"2017-06-14 04:25:21+00",7.1,9.1,,74,-243,-184,-70,1011.03,72.4,0
"2017-06-14 04:30:21+00",7.2,9.2,,74,-213,-155,-79,1011.03,72.4,0
"2017-06-14 04:35:21+00",7.6,8.6,,73.9,-210,-136,-78,1011.01,72.4,0
"2017-06-14 04:40:21+00",7.0,8.0,,73.9,-205,-111,-69,1010.96,72.4,0
"2017-06-14 04:45:21+00",7.1,8.1,,73.8,-241,-119,-55,1010.92,72.5,0
"2017-06-14 04:50:21+00",7.7,9.7,,73.8,-232,-141,-78,1010.79,72.5,0
"2017-06-14 04:55:21+00",6.4,8.4,,73.8,-203,-97,-63,1010.81,72.5,0
"2017-06-14 05:00:21+00",7.3,9.3,,74,-228,-126,-74,1010.74,72.5,0
"2017-06-14 05:05:21+00",6.1,8.1,,73.8,-194,-93,-61,1010.8,72.5,0
"2017-06-14 05:10:21+00",7.5,7.5,,73.8,-229,-135,-71,1010.79,72.5,0
"2017-06-14 05:15:21+00",8.3,9.3,,73.9,-220,-171,-89,1010.71,72.4,0
"2017-06-14 05:20:21+00",7.8,8.8,,73.8,-212,-191,-85,1010.74,72.3,0
"2017-06-14 05:25:21+00",8.8,9.8,,73.6,-245,-183,-77,1010.62,72.2,0
"2017-06-14 05:30:21+00",7.6,8.6,,73.6,-242,-253,-81,1010.56,72.1,0
"2017-06-14 05:35:21+00",9.4,10.4,,73.6,-295,-249,-73,1010.55,72.1,0
"2017-06-14 05:40:21+00",8.9,10.9,,73.5,-282,-261,-72,1010.45,72.1,0
"2017-06-14 05:45:21+00",9.1,10.1,,73.5,-291,-265,-72,1010.39,72,0
"2017-06-14 05:50:21+00",8.8,10.8,,73.6,-278,-276,-54,1010.37,72,0
"2017-06-14 05:55:21+00",9.0,10.0,,73.6,-309,-331,-54,1010.28,72,0
"2017-06-14 06:00:21+00",9.3,10.3,,73.6,-295,-301,-56,1010.25,72,0
"2017-06-14 06:05:21+00",8.9,9.9,,73.3,-283,-356,-69,1010.28,72,0
"2017-06-14 06:10:21+00",10.2,11.2,,73.3,-303,-282,-51,1010.28,72.1,0
"2017-06-14 06:15:21+00",9.5,11.5,,73,-278,-278,-62,1010.16,72.1,0
"2017-06-14 06:20:21+00",9.9,10.9,,73.1,-293,-292,-55,1010.07,72.2,0
"2017-06-14 06:25:21+00",10.0,11.0,,73.5,-291,-239,-67,1010.07,72.3,0
"2017-06-14 06:30:21+00",7.7,8.7,,73.6,-191,-189,-75,1009.96,72.4,0
"2017-06-14 06:35:21+00",8.0,8.0,,73.5,-213,-180,-59,1010.05,72.4,0
"2017-06-14 06:40:21+00",6.6,6.6,,73.6,-242,-125,-54,1010.02,72.3,0
"2017-06-14 06:45:21+00",8.3,9.3,,74,-264,-188,-41,1010.06,72.2,0
"2017-06-14 06:50:21+00",8.2,9.2,,73.8,-235,-177,-61,1010,72.1,0
"2017-06-14 06:55:21+00",7.3,7.3,,74,-198,-147,-68,1009.97,72,0
"2017-06-14 07:00:21+00",8.1,8.1,,74.3,-217,-146,-83,1010.03,72,0
"2017-06-14 07:05:21+00",8.0,8.0,,74.5,-227,-178,-81,1009.97,72,0
"2017-06-14 07:10:21+00",8.9,8.9,,74.5,-259,-210,-61,1009.93,72.1,0
"2017-06-14 07:15:21+00",8.1,9.1,,74.7,-279,-149,-88,1010.07,72.2,0
"2017-06-14 07:20:21+00",8.0,9.0,,74.9,-277,-92,-71,1010.05,72.5,0
"2017-06-14 07:25:21+00",8.1,9.1,,75.1,-280,-84,-58,1010.14,72.7,0
"2017-06-14 07:30:21+00",7.9,8.9,,75.6,-317,-108,-13,1010.14,72.9,0
"2017-06-14 07:35:21+00",8.0,8.0,,75.9,-311,-110,-17,1010.18,73.2,0
"2017-06-14 07:40:21+00",5.6,6.6,,76.2,-210,-84,-23,1010.27,73.3,0
"2017-06-14 07:45:21+00",4.7,4.7,,75.9,-179,-55,-16,1010.38,73.4,0
"2017-06-14 07:50:21+00",5.0,5.0,,75.9,-168,-120,-24,1010.32,73.5,0
"2017-06-14 07:55:21+00",3.4,3.4,,76,-123,32,-16,1010.35,73.5,0
"2017-06-14 08:00:21+00",3.5,3.5,,75.9,-130,-11,-21,1010.22,73.5,0
"2017-06-14 08:05:21+00",3.7,4.7,,76,-145,26,-17,1010.2,73.4,0
"2017-06-14 08:10:21+00",3.4,3.4,,76,-137,8,-5,1010.4,73.4,0
"2017-06-14 08:15:21+00",5.1,6.1,,76,-163,115,-31,1010.41,73.3,0
"2017-06-14 08:20:21+00",4.8,5.8,,76.4,-148,122,-24,1010.4,73.4,0
"2017-06-14 08:25:21+00",3.8,3.8,,74.9,160,38,-24,1010.43,72.7,0
"2017-06-14 08:30:21+00",5.3,7.3,,73.5,195,111,-47,1010.55,72.2,0
"2017-06-14 08:35:21+00",5.7,6.7,,73.3,105,185,-40,1010.63,71.5,0
"2017-06-14 08:40:21+00",5.9,6.9,,74.4,47,218,-39,1010.69,71.6,0
"2017-06-14 08:45:21+00",8.6,8.6,,75.2,118,306,-63,1010.88,72.2,0
"2017-06-14 08:50:21+00",6.8,7.8,,75,147,239,-40,1010.91,72.6,0
"2017-06-14 08:55:21+00",3.7,4.7,,75,34,123,-17,1010.83,72.9,0
"2017-06-14 09:00:21+00",2.2,3.2,,74.9,40,66,-9,1010.66,72.9,0
"2017-06-14 09:05:21+00",1.4,2.4,,74.5,45,16,-5,1010.79,72.6,0
"2017-06-14 09:10:21+00",0.5,1.5,,74.3,-17,10,-3,1010.9,72.1,0
"2017-06-14 09:15:21+00",1.3,2.3,,74.2,-37,35,3,1010.77,71.4,0
"2017-06-14 09:20:21+00",1.9,2.9,,74,-15,67,-1,1010.91,71,0
"2017-06-14 09:25:21+00",2.0,3.0,,74.1,-64,48,-2,1010.89,71.1,0
"2017-06-14 09:30:21+00",2.7,3.7,,74.4,-59,94,2,1010.89,71.2,0
"2017-06-14 09:35:21+00",3.3,4.3,,74.7,-67,119,5,1011.03,71.5,0
"2017-06-14 09:40:21+00",5.1,6.1,,75,-164,162,18,1011.07,71.5,0
"2017-06-14 09:45:21+00",8.1,8.1,,74.6,-55,347,16,1011.32,71.7,0
"2017-06-14 09:50:21+00",9.7,10.7,,74.9,-216,371,21,1011.21,72.1,0
"2017-06-14 09:55:21+00",7.8,8.8,,75,-143,317,23,1011.21,72.6,0
"2017-06-14 10:00:21+00",9.2,10.2,,74.9,-140,375,19,1011.21,72.9,0
"2017-06-14 10:05:21+00",10.4,12.4,,75,-128,436,14,1011.07,73.1,0
"2017-06-14 10:10:21+00",9.2,11.2,,75.1,-4,403,8,1011.27,73.5,0
"2017-06-14 10:15:21+00",10.5,12.5,,75.4,42,459,16,1011.17,73.8,0
"2017-06-14 10:20:21+00",11.1,14.1,,75.1,177,434,10,1011.34,74.1,0.2
"2017-06-14 10:25:21+00",12.7,14.7,,74.6,229,489,6,1011.23,74.1,2.1
"2017-06-14 10:30:21+00",12.4,14.4,,74.2,278,450,-1,1011.37,74,9
"2017-06-14 10:35:21+00",16.9,19.9,,73.8,466,531,9,1011.46,73.8,14.5
"2017-06-14 10:40:21+00",20.6,22.6,,74,560,659,-10,1011.41,73.9,24.4
"2017-06-14 10:45:21+00",19.7,22.7,,74.3,644,558,6,1011.42,74.1,31.1
"2017-06-14 10:50:21+00",19.3,22.3,,74.5,697,498,45,1011.57,74.4,38.4
"2017-06-14 10:55:21+00",19.6,22.6,,74.2,743,460,23,1011.63,74.3,38.2
"2017-06-14 11:00:21+00",17.1,21.1,,74,692,329,26,1011.67,74.1,7.4
"2017-06-14 11:05:21+00",20.7,24.7,,74.2,785,480,31,1011.69,74.1,61.5
"2017-06-14 11:10:21+00",17.9,20.9,,74.3,666,436,39,1011.75,74.5,72.2
"2017-06-14 11:15:21+00",21.8,25.8,,73.8,819,522,34,1011.73,74.3,81.7
"2017-06-14 11:20:21+00",21.1,27.1,,73.5,782,520,18,1011.9,74.2,90.2
"2017-06-14 11:25:21+00",23.1,29.1,,73.8,821,599,35,1011.93,74.4,97.4
"2017-06-14 11:30:21+00",25.8,28.8,,73.7,947,645,43,1011.92,74.4,106.2
"2017-06-14 11:35:21+00",26.1,30.1,,73.5,965,643,37,1012.06,74.3,119
"2017-06-14 11:40:21+00",26.8,29.8,,73.3,961,700,34,1012.06,74.2,127.5
"2017-06-14 11:45:21+00",23.0,28.0,,73.2,857,554,61,1012.28,74.2,138.2
"2017-06-14 11:50:21+00",23.9,29.9,,73.1,905,563,43,1012.39,74,149.2
"2017-06-14 11:55:21+00",24.2,27.2,,72.8,949,524,18,1012.43,74,160.6
"2017-06-14 12:00:21+00",26.8,31.8,,72.3,1025,623,41,1012.63,73.6,169.4
"2017-06-14 12:05:21+00",22.3,28.3,,71.7,920,435,60,1012.67,73.3,175.3
"2017-06-14 12:10:21+00",27.3,29.3,,71.1,1070,571,35,1012.75,73,184.5
"2017-06-14 12:15:21+00",23.9,26.9,,70.7,974,466,31,1012.89,72.7,189.9
"2017-06-14 12:20:21+00",23.3,27.3,,70.6,932,454,46,1013.04,72.4,193.7
"2017-06-14 12:25:21+00",23.0,26.0,,70.3,865,548,23,1013.18,72.2,211.1
"2017-06-14 12:30:21+00",21.8,25.8,,70.2,867,444,37,1013.23,72.2,224.5
"2017-06-14 12:35:21+00",18.3,21.3,,70.4,697,403,71,1013.36,72.5,254
"2017-06-14 12:40:21+00",24.9,27.9,,70.3,941,592,24,1013.38,72.7,291.2
"2017-06-14 12:45:21+00",22.4,25.4,,70.7,836,520,51,1013.45,72.5,122.2
"2017-06-14 12:50:21+00",24.1,28.1,,70.1,934,534,28,1013.5,71.6,104.4
"2017-06-14 12:55:21+00",24.4,27.4,,70.2,1033,419,25,1013.37,71.5,257.4
"2017-06-14 13:00:21+00",24.3,28.3,,70.1,1034,412,21,1013.11,71.5,127.7
"2017-06-14 13:05:21+00",23.6,27.6,,70.2,895,549,38,1013.48,71.7,142.5
"2017-06-14 13:10:21+00",26.1,30.1,,70.2,950,662,52,1013.47,71.7,340.3
"2017-06-14 13:15:21+00",25.8,29.8,,70.8,957,635,57,1013.59,72.7,322.5
"2017-06-14 13:20:21+00",23.3,27.3,,71.1,915,497,63,1013.59,73,307.6
"2017-06-14 13:25:21+00",24.7,28.7,,71.1,949,553,66,1013.69,73.1,180.3
"2017-06-14 13:30:21+00",25.8,28.8,,70.6,999,570,19,1013.67,72,81.1
"2017-06-14 13:35:21+00",22.2,26.2,,70.5,882,447,46,1013.68,71.3,63.2
"2017-06-14 13:40:21+00",22.0,25.0,,70.5,885,448,42,1013.71,71.1,58.8
"2017-06-14 13:45:21+00",18.8,22.8,,70.3,751,378,61,1013.76,70.8,76.2
"2017-06-14 13:50:21+00",22.2,26.2,,70.2,881,458,32,1013.6,70.9,152.6
"2017-06-14 13:55:21+00",26.3,29.3,,70.1,1124,430,5,1013.45,71.4,336.6
"2017-06-14 14:00:21+00",25.1,29.1,,70.6,994,525,29,1013.76,72.2,245
"2017-06-14 14:05:21+00",23.4,28.4,,70.4,921,493,48,1013.81,72.2,135.9
"2017-06-14 14:10:21+00",23.8,27.8,,69.6,846,613,65,1014.06,71,53.2
"2017-06-14 14:15:21+00",20.8,23.8,,69.3,612,637,19,1014.58,70.1,3.2
"2017-06-14 14:20:21+00",17.6,21.6,,69,342,670,9,1015.41,69.2,0
"2017-06-14 14:25:21+00",13.3,16.3,,66.9,269,514,-3,1015.97,66.5,0
"2017-06-14 14:30:21+00",18.9,20.9,,65.7,687,506,31,1015.14,63.9,0
"2017-06-14 14:35:21+00",20.3,25.3,,65.7,853,336,47,1014.89,62.5,0
"2017-06-14 14:40:21+00",18.6,20.6,,66.1,791,309,35,1014.94,62.1,0
"2017-06-14 14:45:21+00",20.8,22.8,,66.7,889,292,49,1014.76,61.8,0
"2017-06-14 14:50:21+00",16.8,18.8,,66.9,697,301,35,1014.75,62.2,0
"2017-06-14 14:55:21+00",16.5,19.5,,66.8,671,303,22,1014.32,63,2.3
"2017-06-14 15:00:21+00",20.0,22.0,,66.8,799,409,21,1014.42,63.5,7.6
"2017-06-14 15:05:21+00",21.8,24.8,,67,859,444,25,1014.4,63.9,9.8
"2017-06-14 15:10:21+00",21.0,23.0,,66.7,814,474,30,1014.48,64.1,12.6
"2017-06-14 15:15:21+00",18.2,20.2,,66.3,743,348,32,1014.44,64.2,18.1
"2017-06-14 15:20:21+00",17.3,20.3,,66.1,708,321,20,1014.42,64.2,21.4
"2017-06-14 15:25:21+00",21.7,23.7,,66.1,910,376,38,1013.97,64.4,26.1
"2017-06-14 15:30:21+00",21.6,24.6,,66.5,939,327,45,1013.76,64.7,41.4
"2017-06-14 15:35:21+00",22.4,25.4,,66.9,984,283,42,1013.68,65.2,58.7
"2017-06-14 15:40:21+00",20.7,24.7,,67.1,910,250,66,1013.84,65.5,60.3
"2017-06-14 15:45:21+00",19.6,23.6,,67.3,865,198,38,1013.98,65.9,100
"2017-06-14 15:50:21+00",18.6,22.6,,67.7,810,220,16,1014.18,66.6,186.5
"2017-06-14 15:55:21+00",17.6,20.6,,68,785,118,30,1014.21,67.2,192.7
"2017-06-14 16:00:21+00",13.1,14.1,,68.4,576,162,39,1014.44,67.8,207
"2017-06-14 16:05:21+00",14.9,16.9,,68.8,649,156,27,1014.56,68.2,143.4
"2017-06-14 16:10:21+00",14.7,17.7,,69,628,247,21,1014.66,68.7,274.3
"2017-06-14 16:15:21+00",13.3,14.3,,69.5,573,192,40,1014.59,69.5,104.7
"2017-06-14 16:20:21+00",14.7,16.7,,69.7,638,207,42,1014.56,69.4,60.2
"2017-06-14 16:25:21+00",16.6,18.6,,69.4,737,143,42,1014.47,69,48.1
"2017-06-14 16:30:21+00",15.9,18.9,,69.1,698,183,24,1014.45,68.6,66.4
"2017-06-14 16:35:21+00",13.8,15.8,,69.3,583,226,41,1014.48,68.7,370.8
"2017-06-14 16:40:21+00",17.3,19.3,,70.1,742,264,32,1014.46,70.7,564.9
"2017-06-14 16:45:21+00",18.0,20.0,,70.5,738,340,6,1014.46,71.8,543.1
"2017-06-14 16:50:21+00",18.3,20.3,,70.9,746,353,10,1014.49,72.5,538.3
"2017-06-14 16:55:21+00",16.7,19.7,,71.1,658,355,49,1014.57,72.8,531.4
"2017-06-14 17:00:21+00",17.4,20.4,,71.6,658,410,55,1014.59,73.3,450.9
"2017-06-14 17:05:21+00",17.1,19.1,,71.5,672,359,30,1014.43,73.4,521.7
"2017-06-14 17:10:21+00",16.5,19.5,,71.5,669,324,9,1014.42,73.6,526
"2017-06-14 17:15:21+00",15.5,18.5,,71.5,644,284,49,1014.51,74,522.1
"2017-06-14 17:20:21+00",14.8,15.8,,71.8,575,321,23,1014.66,74.5,518.5
"2017-06-14 17:25:21+00",18.1,22.1,,72,724,364,31,1014.68,74.5,519.2
"2017-06-14 17:30:21+00",17.3,19.3,,71.8,680,366,40,1014.71,74.5,523.7
"2017-06-14 17:35:21+00",16.0,19.0,,71.8,663,292,31,1014.66,74.5,527.1
"2017-06-14 17:40:21+00",18.7,20.7,,71.7,711,432,32,1014.73,74.5,524.4
"2017-06-14 17:45:21+00",18.1,21.1,,71.6,720,368,45,1014.65,74.2,519
"2017-06-14 17:50:21+00",18.7,22.7,,71.4,736,395,52,1014.61,74,519.1
"2017-06-14 17:55:21+00",18.7,22.7,,71.2,738,388,43,1014.61,73.8,518.6
"2017-06-14 18:00:21+00",20.0,22.0,,71.3,746,483,27,1014.54,73.8,515.9
"2017-06-14 18:05:21+00",18.8,20.8,,71.1,670,492,37,1014.77,73.6,507.9
"2017-06-14 18:10:21+00",19.1,21.1,,71.2,761,389,31,1014.88,73.7,504.3
"2017-06-14 18:15:21+00",18.8,22.8,,71.6,679,469,19,1014.88,73.8,500.4
"2017-06-14 18:20:21+00",18.2,20.2,,71.8,767,310,43,1014.92,74.2,504
"2017-06-14 18:25:21+00",17.7,20.7,,71.1,740,322,12,1014.93,74,498.2
"2017-06-14 18:30:21+00",18.7,20.7,,71,765,348,32,1014.99,73.8,499.5
"2017-06-14 18:35:21+00",18.8,22.8,,71.2,763,369,6,1014.95,74.2,500.7
"2017-06-14 18:40:21+00",18.2,22.2,,71.1,704,398,33,1015,73.9,497.3
"2017-06-14 18:45:21+00",15.9,18.9,,70.9,683,244,81,1014.98,73.9,492.9
"2017-06-14 18:50:21+00",18.0,21.0,,71.2,737,332,27,1014.97,74,487.8
"2017-06-14 18:55:21+00",16.4,19.4,,70.7,681,301,38,1014.98,74,484
"2017-06-14 19:00:21+00",18.5,20.5,,70.3,770,334,13,1014.92,73.7,478.1
"2017-06-14 19:05:21+00",16.9,18.9,,70.3,727,257,35,1014.9,73.5,470.5
"2017-06-14 19:10:21+00",13.9,15.9,,70.9,571,248,77,1014.94,74.1,460.7
"2017-06-14 19:15:21+00",14.8,16.8,,70.1,630,220,65,1014.92,73.8,453.8
"2017-06-14 19:20:21+00",16.2,17.2,,70,673,288,33,1014.92,73.8,446.3
"2017-06-14 19:25:21+00",15.4,19.4,,70,688,96,73,1014.96,73.6,434.2
"2017-06-14 19:30:21+00",15.1,18.1,,69.6,659,187,25,1015.07,73.2,422.7
"2017-06-14 19:35:21+00",15.0,17.0,,69.1,655,129,14,1014.96,72.8,416.7
"2017-06-14 19:40:21+00",12.6,13.6,,69.1,534,151,62,1015.06,72.9,407.9
"2017-06-14 19:45:21+00",12.2,14.2,,68.7,537,115,14,1015.05,72.8,395.5
"2017-06-14 19:50:21+00",11.1,15.1,,68.4,481,106,24,1014.94,72.4,384.8
"2017-06-14 19:55:21+00",13.4,14.4,,68.2,579,173,13,1014.75,72.5,373.2
"2017-06-14 20:00:21+00",12.7,13.7,,68.3,549,145,22,1014.71,72.2,371.3
"2017-06-14 20:05:21+00",12.1,15.1,,68.2,542,11,51,1014.7,72,371.8
"2017-06-14 20:10:21+00",11.9,12.9,,67.9,520,111,4,1014.65,71.7,372.7
"2017-06-14 20:15:21+00",13.3,14.3,,67.9,586,96,3,1014.56,72.1,366
"2017-06-14 20:20:21+00",12.5,13.5,,67.8,551,71,21,1014.47,71.8,355.6
"2017-06-14 20:25:21+00",14.1,15.1,,67.9,612,-119,-19,1014.3,71.2,317.8
"2017-06-14 20:30:21+00",11.5,13.5,,67.6,503,-107,14,1014.31,70.7,52
"2017-06-14 20:35:21+00",9.6,11.6,,67.3,425,-12,25,1014.36,70.6,29.7
"2017-06-14 20:40:21+00",9.6,10.6,,67.3,421,126,36,1014.43,71,28.7
"2017-06-14 20:45:21+00",11.5,13.5,,67,511,46,5,1014.45,70.9,28.6
"2017-06-14 20:50:21+00",12.4,14.4,,67.1,547,87,12,1014.46,70.9,27.4
"2017-06-14 20:55:21+00",10.5,11.5,,67.3,465,2,23,1014.43,70.7,26.3
"2017-06-14 21:00:21+00",9.8,10.8,,67.1,432,-50,-6,1014.32,70.4,284.2
"2017-06-14 21:05:21+00",8.6,11.6,,67.4,377,-44,35,1014.41,70.2,277.6
"2017-06-14 21:10:21+00",9.6,11.6,,67.3,415,110,19,1014.4,70.4,268.5
"2017-06-14 21:15:21+00",9.9,10.9,,67.4,433,-59,0,1014.38,70.6,253.1
"2017-06-14 21:20:21+00",9.4,11.4,,67.6,412,63,28,1014.48,70.6,19.4
"2017-06-14 21:25:21+00",9.9,11.9,,67.7,443,-18,5,1014.4,70.6,243.4
"2017-06-14 21:30:21+00",10.7,11.7,,67.4,454,151,11,1014.51,70.6,236.1
"2017-06-14 21:35:21+00",8.7,10.7,,67.6,390,6,25,1014.33,70.6,227.1
"2017-06-14 21:40:21+00",11.5,13.5,,67.7,512,-40,20,1014.19,70.4,212.4
"2017-06-14 21:45:21+00",9.2,11.2,,67.9,401,28,32,1014.06,70.6,197.8
"2017-06-14 21:50:21+00",10.7,11.7,,67.9,469,107,32,1014.27,70.5,179.9
"2017-06-14 21:55:21+00",9.9,10.9,,68,443,11,31,1014.21,70.2,160.1
"2017-06-14 22:00:21+00",11.3,13.3,,67.5,503,-36,8,1014.14,69.8,163.7
"2017-06-14 22:05:21+00",12.0,13.0,,67,532,-36,7,1014.27,69.4,153.2
"2017-06-14 22:10:21+00",11.8,12.8,,67.1,524,-47,5,1014.23,69,148.5
"2017-06-14 22:15:21+00",11.1,12.1,,67.3,485,72,18,1014.25,69.3,132.4
"2017-06-14 22:20:21+00",11.5,12.5,,67.3,505,47,18,1014.37,69.3,145.4
"2017-06-14 22:25:21+00",10.7,11.7,,67.5,475,-3,29,1014.32,69.3,139.6
"2017-06-14 22:30:21+00",12.0,13.0,,67.3,540,9,11,1014.3,69.2,115.2
"2017-06-14 22:35:21+00",11.6,12.6,,67.3,514,56,13,1014.32,69,110.8
"2017-06-14 22:40:21+00",11.6,12.6,,67.4,508,81,9,1014.39,68.9,102.3
"2017-06-14 22:45:21+00",10.3,11.3,,67.5,458,12,10,1014.32,68.9,94.6
"2017-06-14 22:50:21+00",11.5,12.5,,67.2,505,-92,8,1014.34,68.5,85.5
"2017-06-14 22:55:21+00",9.9,11.9,,67.3,432,-63,54,1014.26,68.4,76.6
"2017-06-14 23:00:21+00",12.5,13.5,,67.2,551,-41,6,1014.38,68.2,72.6
"2017-06-14 23:05:21+00",11.5,12.5,,67.1,506,-88,21,1014.19,68,60.4
"2017-06-14 23:10:21+00",10.8,11.8,,67,450,-176,-7,1014.26,67.9,53.2
"2017-06-14 23:15:21+00",10.0,13.0,,67,430,-86,7,1014.23,67.7,33
"2017-06-14 23:20:21+00",9.9,10.9,,67,414,-81,21,1014.06,67.6,12.3
"2017-06-14 23:25:21+00",11.8,13.8,,66.8,496,-137,11,1014.05,67.4,16.5
"2017-06-14 23:30:21+00",11.7,13.7,,66.7,504,-137,4,1014.12,67.2,18.7
"2017-06-14 23:35:21+00",11.4,13.4,,66.7,490,-126,-6,1014.22,67.1,9.9
"2017-06-14 23:40:21+00",10.7,12.7,,66.7,447,-156,-6,1014.25,66.9,3.8
"2017-06-14 23:45:21+00",10.8,12.8,,66.7,439,-180,-9,1014.35,66.9,0
"2017-06-14 23:50:21+00",8.3,10.3,,66.6,319,-166,6,1014.47,66.7,0
"2017-06-14 23:55:21+00",9.9,10.9,,66.6,397,-168,-4,1014.52,66.6,0
